www.pogodaiklimat.ru
Время
(UTC), дата
22 29.05
23 29.05
00 30.05
01 30.05
02 30.05
03 30.05
04 30.05
05 30.05
06 30.05
07 30.05
08 30.05
09 30.05
10 30.05
11 30.05
12 30.05
13 30.05
14 30.05
15 30.05
16 30.05
17 30.05
18 30.05
19 30.05
20 30.05
21 30.05
22 30.05
23 30.05
00 31.05
01 31.05
02 31.05
03 31.05
04 31.05
05 31.05
06 31.05
07 31.05
08 31.05
09 31.05
10 31.05
11 31.05
12 31.05
13 31.05
14 31.05
15 31.05
16 31.05
17 31.05
18 31.05
19 31.05
20 31.05
21 31.05
22 31.05
23 31.05
00 1.06
01 1.06
02 1.06
03 1.06
04 1.06
05 1.06
06 1.06
07 1.06
08 1.06
09 1.06
10 1.06
11 1.06
12 1.06
13 1.06
14 1.06
15 1.06
16 1.06
17 1.06
18 1.06
19 1.06
20 1.06
21 1.06
22 1.06
23 1.06
00 2.06
01 2.06
02 2.06
03 2.06
04 2.06
05 2.06
06 2.06
07 2.06
08 2.06
09 2.06
10 2.06
11 2.06
12 2.06
13 2.06
14 2.06
15 2.06
16 2.06
17 2.06
18 2.06
19 2.06
20 2.06
21 2.06
22 2.06
23 2.06
00 3.06
01 3.06
02 3.06
03 3.06
04 3.06
05 3.06
06 3.06
07 3.06
08 3.06
09 3.06
10 3.06
11 3.06
12 3.06
13 3.06
14 3.06
15 3.06
16 3.06
17 3.06
18 3.06
19 3.06
20 3.06
21 3.06
22 3.06
23 3.06
00 4.06
01 4.06
02 4.06
03 4.06
04 4.06
05 4.06
06 4.06
07 4.06
08 4.06
09 4.06
10 4.06
11 4.06
12 4.06
13 4.06
14 4.06
15 4.06
16 4.06
17 4.06
18 4.06
19 4.06
20 4.06
21 4.06
22 4.06
23 4.06
00 5.06
01 5.06
02 5.06
03 5.06
04 5.06
05 5.06
06 5.06
07 5.06
08 5.06
09 5.06
10 5.06
11 5.06
12 5.06
13 5.06
14 5.06
15 5.06
16 5.06
17 5.06
18 5.06
19 5.06
20 5.06
21 5.06
Ветер
(напр.,м/с)
Видим. Явления Облачность Т
(С)
Тd
(С)
f
(%)
Тe
(С)
Тes
(С)
Комфортность P
(гПа)
Po
(гПа)
Тmin
(С)
Tmax
(С)
R
(мм)
R24
(мм)
S
(см)
СВ 4-6
{6}
50 км ясно +14.0 +5.7 57 +13 +13 тепло 1026.8 1026.1
СВ 3-5
{5}
50 км ясно +13.1 +6.6 65 +12 +12 тепло 1027.0 1026.3
В 2 50 км ясно +11.7 +7.1 73 +11 +11 по сезону 1027.3 1026.6
СВ 2-3
{3}
50 км ясно +11.3 +7.0 75 +10 +10 тепло 1027.2 1026.5
СВ 3-4
{4}
50 км ясно +9.9 +6.5 79 +8 +8 тепло 1027.2 1026.5
СВ 2 40 км 1/0
[Ac trans]
+9.5 +6.5 82 +8 +8 по сезону 1027.2 1026.5
СВ 2-2
{2}
45 км 1/0
[Ci fib]
+9.4 +6.6 83 +8 +8 по сезону 1027.1 1026.4
В 2-3
{3}
50 км 1/0
[Ci fib]
+11.6 +7.4 75 +11 +12 тепло 1027.1 1026.4
В 3 40 км ясно +13.6 +7.1 65 +13 +15 тепло 1027.1 1026.4 +8.7 +20.8
В 3-4
{4}
40 км ясно +16.1 +7.2 56 +16 +21 тепло 1027.2 1026.6
ЮВ 2-5
{7}
40 км ясно +17.8 +7.7 52 +18 +28 тепло 1027.1 1026.5
ЮВ 3 40 км 1/1 1500 м
[Cu hum Ci fib]
+18.4 +4.9 41 +19 +28 тепло 1026.8 1026.2
ЮВ 2-5
{6}
40 км 1/1 1500 м
[Cu hum Ci fib]
+20.3 +5.2 37 +22 +35 комфорт 1026.5 1025.9
В 2-5
{6}
40 км 3/3 1500 м
[Cu hum Ci fib]
+20.8 +2.1 29 +22 +33 комфорт 1026.0 1025.4
В 4 40 км 4/4 2000 м
[Cu hum]
+21.0 +4.6 34 +22 +28 комфорт 1025.5 1024.9
СВ 3-6
{9}
40 км 5/5 2000 м
[Cu hum]
+21.6 +4.2 32 +22 +28 комфорт 1024.9 1024.3
СВ 6-10
{10}
40 км 5/5 2000 м
[Cu hum]
+21.5 +5.6 35 +22 +24 комфорт 1024.7 1024.1
СВ 6 40 км 5/5 2000 м
[Cu hum]
+21.6 +4.0 32 +22 +24 комфорт 1024.1 1023.5
СВ 6 40 км 8/8 1500 м
[Sc diur, vesp]
+20.1 +5.0 37 +20 +21 тепло 1023.9 1023.3
СВ 6 40 км 9/1 1500 м
[Cu hum Ac cuf]
+20.1 +6.0 40 +21 +21 комфорт 1023.8 1023.2
СВ 4 40 км 8/1 1500 м
[Cu med, cong As op]
+19.4 +5.3 40 +20 +20 тепло 1023.8 1023.2 +13.6 +22.7
СВ 5 40 км 6/3 1500 м
[Cu Sc As op]
+18.0 +4.3 40 +18 +18 тепло 1024.0 1023.4
СВ 4 35 км 4/1 1500 м
[Sc Ci fib]
+16.4 +5.0 47 +16 +16 тепло 1024.6 1024.0
СВ 3 35 км 4/0
[As op Ci fib]
+14.1 +5.0 54 +13 +13 по сезону 1024.8 1024.2
СВ 4-5
{5}
35 км 1/0
[Ac trans]
+14.1 +4.7 53 +13 +13 тепло 1024.9 1024.3
СВ 3-4
{6}
40 км ясно +13.2 +4.8 57 +12 +12 тепло 1025.2 1024.5
СВ 2 40 км ясно +11.6 +5.1 64 +11 +11 по сезону 1025.5 1024.8
СВ 3-4
{4}
40 км ясно +11.5 +5.9 68 +10 +10 тепло 1025.5 1024.8
СВ 3-4
{6}
40 км ясно +10.7 +6.0 73 +9 +9 тепло 1025.5 1024.8
СВ 3-4
{6}
25 км ясно +10.0 +6.0 76 +8 +8 по сезону 1025.4 1024.7
СВ 3 25 км 6/0
[As op Ci sp]
+10.2 +6.0 75 +8 +8 по сезону 1025.5 1024.8
СВ 3 40 км 10/1 1500 м
[Sc Ac trans Cs]
+11.6 +6.5 71 +10 +10 тепло 1025.6 1024.9
СВ 4 60 км 10/0
[Ac trans Cs]
+13.1 +6.6 65 +12 +13 по сезону 1025.8 1025.1 +9.6 +19.8
СВ 5 60 км 9/0
[As trans Cs]
+15.4 +6.4 55 +14 +17 тепло 1025.7 1025.1
С 6 50 км 8/1 1200 м
[Cu hum Ci sp]
+16.6 +6.4 51 +16 +18 тепло 1025.6 1025.0
С 5 50 км 9/1 1350 м
[Cu hum As trans Ci sp]
+17.8 +6.8 48 +17 +21 тепло 1025.3 1024.7
СВ 6 50 км 9/1 1500 м
[Cu hum Ac trans Ci sp]
+18.6 +6.8 46 +18 +21 тепло 1024.9 1024.3
СВ 8 40 км 9/1 1500 м
[Cu hum Ac trans Ci sp]
+19.1 +5.8 42 +19 +20 тепло 1024.5 1023.9
В 7 40 км 9/3 1500 м
[Cu hum Ac trans Ci sp]
+19.9 +6.4 41 +20 +22 тепло 1024.2 1023.6
СВ 7 40 км 9/1 1500 м
[Cu hum Ac trans Ci fib]
+20.8 +7.4 42 +22 +24 комфорт 1024.0 1023.4
В 6 40 км 8/1 1500 м
[Cu hum Ac trans Ci fib]
+20.8 +7.1 41 +22 +24 комфорт 1023.9 1023.3
СВ 5 40 км 6/1 1500 м
[Cu hum Ac trans Ci fib]
+21.1 +7.0 40 +22 +25 комфорт 1023.5 1022.9
СВ 7 35 км 8/1 1500 м
[Cu hum Ci fib]
+20.9 +6.2 38 +22 +23 комфорт 1023.3 1022.7
СВ 6-8
{11}
35 км 8/0
[Ci fib]
+20.4 +6.3 40 +21 +22 комфорт 1023.4 1022.8
СВ 6 40 км 8/0
[Ci fib]
+19.7 +4.9 38 +20 +20 тепло 1023.5 1022.9 +13.0 +21.6
СВ 4-6
{9}
40 км 8/0
[Ci fib]
+18.7 +6.1 44 +19 +19 тепло 1023.8 1023.2
СВ 5-7
{7}
40 км 8/0
[Ci fib]
+17.6 +8.2 54 +17 +17 тепло 1024.4 1023.8
СВ 5 40 км 8/0
[Ci fib]
+16.3 +8.9 62 +15 +15 тепло 1024.9 1024.3
В 5-7
{9}
40 км 6/0
[Ci fib]
+15.1 +7.3 60 +14 +14 тепло 1025.3 1024.7
СВ 4-6
{8}
40 км 5/0
[Ci fib]
+14.0 +5.5 57 +13 +13 тепло 1025.8 1025.1
СВ 4 40 км 6/0
[Ci fib]
+12.9 +3.9 54 +11 +11 по сезону 1025.7 1025.0
СВ 3-4
{6}
40 км 6/0
[Ci fib]
+11.1 +3.6 60 +9 +9 по сезону 1025.6 1024.9
СВ 3-4
{4}
40 км 4/0
[Ci fib]
+10.5 +3.7 63 +9 +9 тепло 1025.4 1024.7
СВ 3 40 км 4/0
[Ci fib]
+10.0 +3.8 65 +8 +8 прохладно 1025.2 1024.5
СВ 4-6
{6}
40 км 3/0
[Ci fib]
+10.4 +4.2 65 +8 +8 по сезону 1025.6 1024.9
СВ 4-6
{6}
40 км 1/0
[Ci fib]
+11.5 +4.9 64 +9 +10 тепло 1025.7 1025.0
В 5 45 км 1/0
[Ci fib]
+12.6 +5.8 63 +11 +12 по сезону 1025.9 1025.2 +9.5 +19.8
В 4-6
{6}
45 км 1/0
[Ci fib]
+14.2 +6.8 61 +13 +17 тепло 1025.9 1025.3
СВ 4-7
{7}
45 км 1/0
[Ci fib]
+16.2 +8.2 59 +16 +22 тепло 1025.7 1025.1
СВ 4 45 км 1/0
[Ci fib]
+17.8 +8.1 53 +18 +26 тепло 1025.8 1025.2
СВ 5-8
{8}
45 км 1/0
[Ci fib]
+19.8 +8.1 47 +21 +28 комфорт 1025.3 1024.7
В 7-9
{10}
45 км 3/0
[Ci fib]
+21.5 +7.3 40 +22 +27 комфорт 1024.8 1024.2
В 6 45 км 6/0
[Ci fib]
+22.2 +7.3 38 +23 +29 комфорт 1024.2 1023.6
СВ 5-8
{10}
45 км 6/0
[Ci fib]
+23.3 +6.8 35 +24 +31 комфорт 1023.6 1023.0
СВ 6-9
{11}
45 км 6/0
[Ci sp]
+23.8 +7.2 34 +24 +28 комфорт 1023.3 1022.7
В 5 45 км 6/0
[Ci fib]
+24.4 +6.9 33 +25 +29 комфорт 1022.8 1022.2 0.0
СВ 6-8
{13}
45 км 8/0
[Ci sp]
+24.7 +7.2 33 +25 +27 комфорт 1022.3 1021.7
В 6-9
{9}
45 км 8/0
[Ci sp]
+24.1 +6.6 32 +24 +25 комфорт 1022.0 1021.4
В 5 30 км 9/0
[Ci fib]
+23.2 +6.8 35 +24 +24 комфорт 1021.6 1021.0 +12.6 +25.0
СВ 6-8
{8}
30 км 9/0
[Ci fib]
+21.6 +8.6 43 +23 +23 комфорт 1021.8 1021.2
СВ 6-8
{9}
30 км 9/0
[Ci fib]
+19.9 +8.3 47 +21 +21 комфорт 1022.2 1021.6
СВ 6 30 км 9/0
[Ci fib]
+18.4 +8.3 52 +18 +18 тепло 1022.5 1021.9 0.0
В 4-7
{8}
30 км 9/0
[Ci fib]
+16.9 +8.3 57 +16 +16 тепло 1022.7 1022.1
В 3-4
{7}
30 км 9/0
[Ci fib]
+14.9 +8.3 65 +14 +14 тепло 1022.7 1022.1
СВ 2 30 км 6/0
[Ci fib]
+14.3 +8.5 68 +14 +14 тепло 1022.6 1022.0
В 3-3
{4}
30 км 5/0
[Ci fib]
+12.8 +8.4 75 +11 +11 тепло 1022.3 1021.6
В 3-4
{4}
30 км 3/0
[Ci fib]
+12.0 +8.0 76 +10 +10 тепло 1021.9 1021.2
СВ 2 30 км 9/0
[Ci fib]
+11.9 +7.9 76 +11 +11 по сезону 1021.9 1021.2
В 3-3
{4}
30 км 9/0
[Ci fib]
+11.3 +7.7 78 +10 +10 по сезону 1021.7 1021.0
В 2-3
{3}
30 км 9/0
[Ci fib]
+14.6 +7.8 64 +14 +15 тепло 1021.5 1020.9
В 5 30 км 8/0
[Ci fib]
+16.6 +6.9 53 +16 +17 тепло 1021.2 1020.6 +10.1 +23.4
ЮВ 5-7
{7}
30 км 9/0
[Ci fib]
+18.4 +6.8 47 +18 +21 тепло 1021.1 1020.5
ЮВ 4-6
{7}
30 км 9/0
[Ci sp]
+20.2 +7.5 44 +21 +27 комфорт 1020.8 1020.2
ЮВ 4 35 км 9/0
[Ci sp]
+21.8 +7.8 41 +23 +30 комфорт 1020.1 1019.5
В 4-6
{8}
35 км 9/0
[Ci sp]
+22.8 +7.8 38 +24 +32 комфорт 1019.5 1018.9
ЮВ 4-6
{8}
30 км 9/0
[Ci sp]
+23.5 +7.4 36 +24 +33 комфорт 1018.6 1018.0
ЮВ 3 35 км 9/0
[Ci sp]
+24.3 +7.8 35 +25 +36 комфорт 1017.8 1017.2
ЮВ 2-4
{7}
35 км 9/0
[Ci fib]
+25.4 +7.5 32 +25 +38 комфорт 1017.0 1016.4
Ю 2-4
{6}
35 км 9/0
[Ci sp]
+25.6 +7.6 32 +26 +36 жарко 1016.0 1015.4
ЮВ 3 35 км 9/0
[Ci sp]
+25.6 +6.7 30 +25 +32 комфорт 1015.1 1014.5
ЮВ 3-5
{6}
35 км 9/0
[Ci sp]
+25.9 +7.0 30 +26 +30 жарко 1014.2 1013.6
ЮВ 2-3
{5}
40 км 9/0
[Ci sp]
+25.7 +7.9 32 +26 +28 жарко 1013.3 1012.7
ЮВ 1 40 км 9/0
[Ci sp]
+24.7 +8.7 36 +25 +26 комфорт 1012.7 1012.1 +16.5 +27.0
ЮВ 1-1
{2}
40 км 9/0
[Ci sp]
+24.5 +9.1 38 +25 +25 комфорт 1012.3 1011.7
В 1-1
{2}
40 км 9/0
[Ci sp]
+20.6 +9.8 50 +23 +23 комфорт 1012.0 1011.4
СВ 3 40 км 9/0
[Ci sp]
+20.1 +11.2 57 +22 +22 комфорт 1011.7 1011.1
СВ 3-4
{6}
40 км 9/0
[Ci sp]
+18.6 +11.6 64 +19 +19 тепло 1011.1 1010.5
СВ 3-4
{4}
45 км 9/0
[Ci sp]
+16.9 +11.1 69 +17 +17 тепло 1010.6 1010.0
В 2 40 км 9/0
[Ci sp]
+16.1 +10.0 67 +16 +16 тепло 1009.9 1009.3
В 3-4
{4}
40 км 9/0
[Ci sp]
+15.8 +9.9 68 +15 +15 тепло 1009.1 1008.5
ЮВ 2-3
{5}
40 км 9/0
[Ci sp]
+16.5 +9.5 63 +17 +17 тепло 1008.5 1007.9
ЮВ 1 40 км 9/0
[Ci sp]
+15.4 +9.2 67 +16 +16 тепло 1007.7 1007.1
В 1 40 км 9/0
[Ac trans Ci sp]
+15.2 +9.2 67 +16 +16 тепло 1007.2 1006.6
В 1 40 км 8/0
[Ac trans Ci sp]
+16.2 +10.5 69 +17 +18 тепло 1006.9 1006.3
В 2 40 км 8/0
[Ac cast Ci sp]
+19.4 +10.1 55 +21 +23 комфорт 1006.4 1005.8 +15.0 +25.1
В 2 40 км 8/0
[Ac trans Ci fib]
+21.3 +11.4 53 +23 +27 комфорт 1005.9 1005.3
ЮВ 3 40 км 6/0
[Ac trans Ci fib]
+23.1 +11.0 46 +25 +31 комфорт 1005.5 1004.9
ЮВ 3 40 км 8/0
[Ac trans Ci fib]
+24.6 +10.9 42 +26 +34 жарко 1005.1 1004.5
В 4 40 км 9/1 1500 м
[Cu hum Ac trans Ci fib]
+25.8 +10.8 39 +27 +32 жарко 1004.6 1004.0
Ю 4 40 км 9/3 1500 м
[Cu med, cong Ac trans Ci fib]
+25.9 +10.4 38 +27 +31 жарко 1003.9 1003.3
Ю 3 40 км 9/4 1500 м
[Cb cap Ac trans]
+26.3 +10.8 38 +27 +31 жарко 1003.2 1002.6
Ю 4 40 км 8/5 1500 м
[Cb cap Ac trans Ci fib]
+27.2 +9.6 33 +28 +31 жарко 1002.3 1001.7
Ю 4 40 км в посл. час гроза 6/5 1500 м
[Cb cap Ci fib]
+26.9 +8.3 31 +27 +31 жарко 1001.5 1000.9
СВ 7 40 км {гроза} 8/8 1500 м
[Cb cap]
+23.6 +9.8 42 +25 +25 комфорт 1001.4 1000.8
В 6 8000 м гроза, ливневой дождь 9/9 1080 м
[Cb cap]
+21.7 +12.2 55 +24 +24 комфорт 1001.7 1001.1
В 6 35 км в посл. час гроза {ливн. осадки} 9/4 1000 м
[Cu Sc As op]
+21.0 +11.6 55 +23 +23 комфорт 1001.0 1000.4
В 6 30 км {гроза, ливн. осадки} 9/6 600 м
[Cb cap Ci sp]
+20.3 +11.6 57 +22 +22 комфорт 1000.9 1000.3 +19.5 +28.4 0.1
В 5 28 км 9/6 1000 м
[Cb cap Ci sp]
+18.9 +12.0 64 +19 +19 тепло 1000.9 1000.3
В 4 28 км 9/4 1000 м
[Cb cap As op Ci sp]
+17.9 +11.7 67 +18 +18 тепло 1001.2 1000.6
В 4 35 км 9/3 900 м
[Cb cap As op Ci sp]
+17.7 +11.3 66 +17 +17 тепло 1000.6 1000.0
Ю 2 40 км 9/3 1500 м
[Cu med, cong As op]
+17.0 +11.4 70 +17 +17 тепло 1000.1 999.5
ЮВ 2-3
{3}
40 км 9/0
[As op]
+16.6 +11.3 71 +17 +17 тепло 999.0 998.4
В 1 40 км 9/0
[Ci sp]
+15.9 +11.4 75 +17 +17 тепло 998.4 997.8
СВ 2-3
{3}
40 км 5/0
[As op]
+14.4 +11.4 82 +14 +14 тепло 997.7 997.1
СВ 3-4
{4}
40 км 5/0
[As op]
+14.0 +11.6 85 +13 +13 тепло 997.1 996.5
СВ 2 35 км 9/0
[As op Ci sp]
+13.5 +11.5 88 +13 +13 тепло 996.5 995.9
В 1 25 км 9/1 1440 м
[Cu med, cong As op Ci sp]
+13.0 +11.8 92 +13 +13 тепло 996.0 995.4
ЮВ 1 20 км 9/1 1440 м
[Cu med, cong Ac trans Ci sp]
+14.3 +12.1 87 +15 +15 тепло 995.6 995.0
ЮВ 2 18 км 9/1 1000 м
[Cu med, cong Ac trans Ci fib]
+15.4 +12.4 82 +15 +17 тепло 995.1 994.5 +12.5 +20.3
ЮВ 2 16 км 9/3 1350 м
[Cu med, cong Ac trans Ci sp]
+17.4 +13.3 77 +18 +20 тепло 994.7 994.1
Ю 4 13 км 9/1 600 м
[Cu med, cong Ac As]
+17.6 +13.5 77 +17 +20 тепло 994.4 993.8
ЮЗ 6 8000 м 10/6 400 м
[Cu Sc As op]
+16.5 +13.5 82 +15 +16 по сезону 994.8 994.2
ЮЗ 5 7000 м слаб. дождь 10/4 360 м
[Cu med, cong As op]
+15.5 +13.7 89 +14 +15 по сезону 994.6 994.0
ЮЗ 5 5000 м дождь 10/4 360 м
[Cu med, cong As op]
+14.9 +14.1 95 +13 +14 по сезону 994.2 993.6
ЮЗ 5 7000 м в посл. час дождь 9/3 240 м
[Cu med, cong As op]
+16.4 +14.4 88 +15 +17 прохладно 993.5 992.9 3
ЮЗ 5 8000 м в посл. час дождь 9/9 330 м
[Cu Sc]
+16.3 +13.6 84 +15 +16 прохладно 993.3 992.7
З 4 4500 м слаб. ливневой дождь 9/9 420 м
[Cu Sc]
+15.3 +14.6 96 +14 +15 прохладно 992.9 992.3
З 2 12 км слаб. дождь 9/6 570 м
[Cu Sc As op]
+14.0 +12.6 91 +13 +15 прохладно 993.1 992.5 1
СЗ 9 6000 м слаб. ливневой дождь 9/9 180 м
[Cb calv]
+12.5 +11.9 96 +9 +9 очень
холодно
993.2 992.6
СЗ 7 20 км слаб. дождь 10/9 240 м
[Sc]
+12.3 +11.3 94 +9 +9 холодно 993.3 992.7
З 5 20 км слаб. дождь 10/9 200 м
[Cu Sc]
+12.3 +11.3 94 +10 +10 холодно 993.5 992.9 +12.0 +17.9 3
З 5 20 км слаб. дождь 10/9 270 м
[Cu Sc]
+12.0 +10.9 93 +9 +9 холодно 993.6 993.0
З 3 20 км слаб. дождь 10/9 500 м
[Cu Sc]
+11.7 +11.0 95 +10 +10 холодно 993.8 993.2
З 5 15 км слаб. дождь 10/9 240 м
[Cu Sc]
+11.4 +10.3 93 +9 +9 прохладно 994.1 993.5 0.5
З 5 25 км слаб. дождь 10/9 300 м
[Cu Sc]
+11.3 +9.9 91 +9 +9 прохладно 994.2 993.6
З 4 15 км слаб. дождь 10/9 360 м
[Cu Sc]
+10.6 +10.0 96 +8 +8 прохладно 994.4 993.8
З 4 25 км в посл. час дождь 10/5 300 м
[Cu Sc As op]
+10.3 +9.5 95 +8 +8 прохладно 994.3 993.7 2
З 3 25 км в посл. час дождь 10/1 300 м
[Cu hum As op]
+9.9 +9.3 96 +8 +8 по сезону 994.4 993.8
ЮЗ 4 25 км в посл. час дождь 10/9 270 м
[Cu Sc]
+9.8 +9.1 95 +7 +7 по сезону 994.5 993.9
ЮЗ 4 15 км слаб. дождь 9/9 270 м
[Cu Sc]
+9.6 +9.0 96 +7 +7 прохладно 994.4 993.8 0.0
З 4 25 км в посл. час дождь 8/5 330 м
[Cu hum Ac trans]
+9.2 +8.1 93 +6 +6 прохладно 994.6 994.0
ЮЗ 5-7
{7}
30 км 4/3 330 м
[Cu hum Ac trans]
+9.4 +8.0 91 +6 +6 по сезону 994.7 994.1
ЮЗ 5 35 км {дождь} 3/1 300 м
[Cu med, cong Ac trans]
+10.3 +6.9 79 +7 +9 прохладно 995.0 994.4 +8.7 +12.3 2
ЮЗ 5-7
{8}
35 км 4/4 540 м
[Cu hum Ci fib]
+11.0 +6.7 75 +8 +10 по сезону 994.8 994.2
ЮЗ 5 35 км 6/5 660 м
[Cu med, cong Ci fib]
+12.4 +6.8 69 +10 +13 по сезону 994.6 994.0
ЮЗ 5 40 км 6/3 840 м
[Cu med, cong Ci sp]
+12.2 +6.1 66 +10 +14 холодно 994.3 993.7
Ю 7 40 км 8/4 960 м
[Cu med, cong Ci sp]
+13.8 +6.4 61 +12 +14 по сезону 994.0 993.4
Ю 7 40 км 8/4 1200 м
[Cu med, cong Ci sp]
+15.0 +5.2 52 +13 +16 по сезону 993.0 992.4
Ю 6 35 км 8/5 1320 м
[Cu med, cong Ci sp]
+15.4 +5.8 53 +14 +17 прохладно 992.0 991.4
Ю 8 35 км 9/6 1300 м
[Cu Sc Ac trans Ci sp]
+15.1 +6.1 55 +13 +14 холодно 990.9 990.3
Ю 9 22 км слаб. дождь 9/9 1170 м
[Cu Sc]
+14.3 +7.3 63 +12 +12 холодно 990.1 989.5
Ю 7 30 км слаб. дождь 9/9 800 м
[Cu Sc]
+11.0 +9.2 89 +8 +8 очень
холодно
989.7 989.1 1
Ю 6 40 км в посл. час дождь 8/5 1110 м
[Cu Sc Ac trans]
+10.7 +8.4 86 +7 +8 очень
холодно
990.1 989.5
Ю 5 40 км 9/3 600 м
[Cu med, cong Ac trans]
+10.6 +8.1 85 +8 +8 очень
холодно
990.1 989.5
ЮЗ 7 45 км слаб. ливневой дождь 9/6 300 м
[Cu Sc Ac As]
+10.5 +7.6 82 +7 +7 очень
холодно
990.0 989.4 +10.2 +16.2 0.1
ЮЗ 8 45 км в посл. час ливневой дождь 9/9 450 м
[Cu Sc]
+9.7 +7.9 89 +5 +5 очень
холодно
990.9 990.3
З 7 50 км в посл. час ливневой дождь 9/3 630 м
[Cu Sc Ac As Ci fib]
+9.5 +6.5 82 +6 +6 очень
холодно
992.4 991.8
ЮЗ 6 50 км {ливн. осадки} 8/5 600 м
[Cb cap Ac trans Ci fib]
+9.2 +6.7 84 +5 +5 очень
холодно
993.4 992.8 0.0
Местоположение метеостанции Бремен (Германия): широта 53.05 долгота 8.80 высота над уровнем моря 3 м.
В архиве по умолчанию представлена погода в Бремене за последнюю неделю. Архивные данные за месяц целиком и за предыдущие месяцы, начиная с января 2011 года, Вы можете получить, выбрав интересующий диапазон дат из раскрывающегося списка и нажав кнопку "Найти!".
*Определитесь, кто Вы:
Внимание! Время в таблицах - всемирное. Для получения местного времени необходимо прибавить поправку, которая равна 1 ч.
Смотрите также архив погоды в соседних городах и на ближайших метеорологических станциях:
Партнеры нашего сайта:      
Пояснения к столбцам:
  • Ветер - указаны скорость ветра в м/с - средняя за 10 мин, порывы в срок и между сроками (в фигурных скобках) и направление, откуда дует ветер: С - северный,
  • СВ - северо-восточный, В - восточный, ЮВ - юго-восточный, Ю - южный, ЮЗ - юго-западный, З - западный, СЗ - северо-западный.
  • Видимость - горизонтальная дальность видимости в метрах или километрах. При видимости от 1 до 10 км при отсутствии осадков обычно наблюдается дымка, при ухудшении видимости до 1 км и менее - туман. В сухую погоду видимость может ухудшаться дымом, пылью или мглою.
  • Явления - указаны атмосферные явления, наблюдавшиеся в срок или в последний час перед сроком; фигурными скобками обозначены явления, наблюдавшиеся между сроками (за 1-3 часа до срока); квадратными скобками обозначены град или гололедные отложения с указанием их диаметра в мм.
  • Облачность - указаны через наклонную черту общая и нижняя облачность в баллах и высота нижней границы облаков в метрах; квадратными скобками обозначены формы облаков: Ci - перистые, Cs - перисто-слоистые, Cc - перисто-кучевые, Ac - высококучевые, As - высокослоистые, Sc - слоисто-кучевые, Ns - слоисто-дождевые, Cu - кучевые, Cb - кучево-дождевые. Подробнее классификацию облаков см. в Атласе облаков (PDF).
  • T - Температура воздуха - температура, измеренная на высоте 2 м над землей.
  • Td - Температура точки росы - температура, при понижении до которой содержащийся в воздухе водяной пар достигнет насыщения.
  • f - Относительная влажность воздуха - влажноcть воздуха, измеренная на высоте 2 м над землей.
  • Te - Эффективная температура - температура, которую ощущает одетый по сезону человек в тени. Характеристика душности погоды. При расчете учитывается влияние влажности воздуха и скорости ветра на теплоощущения человека.
  • Tes - Эффективная температура на солнце - температура, которую ощущает человек, с поправкой на солнечный нагрев. Характеристика знойности погоды. Зависит от высоты солнца над горизонтом, облачности и скорости ветра. Ночью, в пасмурную погоду, а также при ветре 12 м/с и более поправка равна нулю.
  • P - Атмосферное давление - приведенное к уровню моря атмосферное давление.
  • Po - Атмосферное давление - измеренное на уровне метеостанции атмосферное давление.
  • Tmin - Минимальная температура - минимум температуры воздуха на высоте 2 м над землей.
  • Tmax - Максимальная температура - максимум температуры воздуха на высоте 2 м над землей.
  • R - Количество осадков - Количество выпавших осадков за период времени, мм. При наведении курсора мыши на число - период времени, за который выпало указанное количество осадков.
  • R24 - Количество осадков - Количество выпавших осадков за 24 часа, мм.
  • S - Снежный покров - Высота снежного покрова, см. При наведении курсора мыши на число - состояние снежного покрова и степень покрытия местности в баллах.